Skip to main content Skip to accessibility
This website is not compatible with your web browser. You should install a newer browser. If you live in Jersey and need help upgrading call the States of Jersey web team on 440099.
Homegov.je

L'înformâtion et les sèrvices publyis pouor I'Île dé Jèrri

  • Choose the service you want to log in to:

  • gov.je

    Update your notification preferences

  • one.gov.je

    Access government and parish services

  • CAESAR

    Clear goods through customs or claim relief

  • Talentlink

    View or update your States of Jersey job application

Local METARs

METAR EGJJ 180150Z AUTO 05012KT 9999 NCD 14/13 Q1022

METAR EGJB 180150Z 06009KT 9999 FEW014 15/13 Q1023

METAR LFRD 180130Z AUTO 04007KT 7000 BKN049/// BKN062/// OVC094/// ///TCU 14/13 Q1021 BECMG SCT040

METAR LFRC 180130Z AUTO 05009KT 9999 BKN010 BKN014 BKN021 14/12 Q1023

 

 

 

​Times are in Greenwich Mean Time (GMT) and not British Summer Time (BST). They will be one hour different during BST.

Back to top
rating button